Regional Weather Roundup
Issued by NWS Grand Forks, ND

Home | Current Version | Previous Version | Text Only | Print | Product List | Glossary Off
Versions: 1 2 3 4 5 6 7 8 9 10 11 12 13 14 15 16 17 18 19 20 21 22 23 24 25 26 27 28 29 30 31 32 33 34 35 36 37 38 39 40 41 42 43 44 45 46 47 48 49 50

000
ASUS43 KFGF 310310
RWRFGF
PRAIRIE TO PINES  WEATHER ROUNDUP
NATIONAL WEATHER SERVICE EASTERN NORTH DAKOTA/GRAND FORKS ND
1000 PM CDT SAT AUG 30 2014

 **SATELLITE DATA USED TO AUGMENT SKY COVER AT AUTOMATED STATIONS**
 *****  WEATHER ACROSS EASTERN NORTH DAKOTA  *****

CITY           SKY/WX    TMP DP  RH WIND       PRES   REMARKS
GRAND FORKS    PTCLDY    63  59  87 SE7       29.78S
GRAND FRKS AFB PTCLDY    62  61  97 S9        29.78F
GRAND FRKS NWS   N/A     63 N/A N/A SE7         N/A
DEVILS LAKE    CLEAR     64  52  63 SE10      29.72F
FARGO          PTCLDY    64  60  87 S7        29.80S
WAHPETON ARPT  CLEAR     57  54  88 SE6       29.82F
$$

 ***** WEATHER ACROSS CENTRAL AND WESTERN NORTH DAKOTA  *****

CITY           SKY/WX    TMP DP  RH WIND       PRES   REMARKS
BISMARCK       MOCLDY    65  57  75 SE8       29.72R
MINOT          NOT AVBL
JAMESTOWN      CLEAR     60  58  92 SE9       29.74F
MINOT AFB      CLOUDY    65  56  72 SE10      29.67F
GARRISON         N/A     66  58  75 SE8       29.69R
WILLISTON      MOCLDY    61  59  93 E3        29.71R
DICKINSON      LGT RAIN  65  59  81 S12       29.69R
HETTINGER        N/A     59  57  93 SW15      29.73R THUNDER
$$

 *****  OTHER AIRPORT OBSERVATIONS IN OUR AREA  *****

CITY           SKY/WX    TMP DP  RH WIND       PRES   REMARKS
WALHALLA         N/A     54  54 100 CALM      29.78S
GRAFTON AIRPOR FAIR      59  52  77 SE9       29.77S
VALLEY CITY AR FAIR      59  59 100 SE8       29.77F
CANDO          FAIR      55  54  94 SE8       29.74F
CAVALIER APRT  FAIR      57  50  77 CALM      29.78F
GWINNER        CLEAR     61  61 100 E8        29.80F
SHEYENNE NWR     N/A     57  56  97 SE3       29.95
ROLLA          FAIR      57  55  94 SE8       29.74F
 ***** THE ABOVE OBSERVATIONS ARE NON NWS ARE NOT QUALITY
       CONTROLLED AND MAY MIS-REPORT RAIN FOR SNOW...
$$

  *****  WEATHER ACROSS NORTHERN MINNESOTA  *****

CITY           SKY/WX    TMP DP  RH WIND       PRES   REMARKS
FLAG ISLAND    CLEAR     63  54  72 E3        29.82S
WARROAD        CLEAR     57  54  88 SE3       29.83S
ROSEAU         CLEAR     59  54  82 SE7       29.83S
HALLOCK        CLEAR     63  52  67 SE9       29.78F
THF RVR FALLS  PTCLDY    57  55  94 SE8       29.82F
BAUDETTE       MOCLDY    59  53  80 SE7       29.84S
WASKISH        CLOUDY    61  57  88 CALM      29.85F
CROOKSTON      CLEAR     59  57  94 SE8       29.81F
$$
  *****  WEATHER ACROSS CENTRAL AND WEST MINNESOTA  *****

CITY           SKY/WX    TMP DP  RH WIND       PRES   REMARKS
FOSSTON        CLOUDY    61  55  82 SE7       29.84S
BEMIDJI        CLOUDY    62  59  88 SE8       29.85F
PARK RAPIDS    CLOUDY    62  61  96 SE7       29.85F
ELBOW LAKE     FAIR      61  60  96 SE6       29.83F
WADENA         CLOUDY    61  59  94 E3        29.85F FOG
DETROIT LAKES  PTCLDY    61  59  94 SE8       29.84F
MOORHEAD       CLEAR     63  63 100 S5        29.82S
FERGUS FALLS   CLEAR     61  57  88 SE3       29.83F
MORRIS MN      FAIR      61  59  94 SE6       29.83F
STAPLES        PTCLDY    61  59  94 CALM      29.86F
$$
  *****  WEATHER ELSEWHERE ACROSS MINNESOTA  *****

CITY           SKY/WX    TMP DP  RH WIND       PRES   REMARKS
DULUTH         CLOUDY    61  58  90 SE10      29.91S FOG
INTRNTL FALLS  CLEAR     54  52  93 CALM      29.87S
ELY            MOCLDY    57  55  94 CALM      29.91S
CLOQUET        CLOUDY    61  57  88 E7        29.90F
WHEATON        CLEAR     55  54  94 SE7       29.84S
BRAINERD       CLOUDY    63  62  97 E3        29.87S
HIBBING        CLOUDY    62  58  86 SE8       29.89F
ALEXANDRIA     CLOUDY    64  61  90 S5        29.86F
SAINT CLOUD    MOCLDY    69  65  86 SE5       29.86S
MINNEAPOLIS    MOCLDY    68  62  81 SE7       29.88R
$$

  *****  WEATHER ACROSS SOUTH DAKOTA  *****

CITY           SKY/WX    TMP DP  RH WIND       PRES   REMARKS
SIOUX FALLS    CLEAR     65  61  87 S7        29.85R
BROOKINGS      NOT AVBL
WATERTOWN      CLEAR     60  57  89 S7        29.82F
HURON          CLEAR     65  59  81 SE12G18   29.76F
SISSETON         N/A     59  59 100 S5        29.80F
ABERDEEN       CLEAR     60  59  96 SE10      29.74F
MITCHELL       CLEAR     64  61  90 SE9       29.80F
PIERRE         PTCLDY    69  62  78 SE21      29.66S
MOBRIDGE       PTCLDY    66  59  78 SE17G23   29.66R
RAPID CITY     MOCLDY    72  54  53 N32G44    29.73R
$$

  *****  SOME WEATHER IN NEARBY STATES *****

CITY           SKY/WX    TMP DP  RH WIND       PRES   REMARKS
GLASGOW MT     MOCLDY    60  57  89 SE9       29.69F
GREAT FALLS MT CLOUDY    59  41  51 W7        29.77R
CHEYENNE WY    CLOUDY    62  46  55 SW7       30.02F
SCOTTSBLUFF NE CLOUDY    74  50  42 S5        29.87R
OMAHA NE       CLEAR     72  64  76 SE8       29.87S
DES MOINES IA  CLEAR     72  66  81 SE3       29.89R
DAVENPORT IA   CLEAR     69  65  86 SW3       29.91R
CHICAGO IL     PTCLDY    74  64  71 W5        29.90R
EAU CLAIRE WI  CLEAR     61  60  97 N3        29.89S
LA CROSSE WI   MOCLDY    68  64  87 N3        29.88R
$$

  *****  SOME NATIONAL WEATHER *****

CITY           SKY/WX    TMP DP  RH WIND       PRES   REMARKS
LA GUARDIA NY  MOCLDY    74  64  71 S8        30.16S
RALEIGH NC     MOCLDY    78  71  79 S5        30.17R
ATLANTA GA     TSTM      75  72  88 SW9G21    30.17R VSB 3/4
NEW ORLEANS LA CLOUDY    76  73  91 S3        30.06R
OKLAHOMA CITY  CLEAR     80  64  58 SE9       29.91R
ALBUQUERQUE NM MOCLDY    77  44  30 SE8       30.04R
SALT LAKE CITY MOCLDY    74  45  35 SW6       29.80S
LOS ANGELES CA PTCLDY    71  65  81 W6        29.75S
BOISE ID       LGT RAIN  61  55  81 N30G45    29.90R
SEATTLE WA     LGT RAIN  60  58  92 S6        29.94R
$$

*** WEATHER ACROSS MANITOBA...SASKATCHEWAN AND ONTARIO ***
                ***ONTARIO***

CITY           SKY/WX    TMP DP  RH WIND       PRES   REMARKS
GERALDTON      PTCLDY    57  52  82 N5        29.91S
THUNDER BAY    MOCLDY    57  55  94 W3        29.91S
SIOUX LOOKOUT  PTCLDY    55  50  82 SE6       29.90F
TORONTO        PTCLDY    79  66  65 SW15      29.89F
BIG TROUT LK   CLEAR     45  43  93 E3        29.90F
PICKLE LAKE    NOT AVBL
DRYDEN         CLEAR     57  50  77 SE8       29.88F
KENORA         NOT AVBL
$$
                *** MANITOBA***

CITY           SKY/WX    TMP DP  RH WIND       PRES   REMARKS
BRANDON        CLOUDY    61  50  67 SE6       29.74F
DAUPHIN        CLOUDY    61  55  82 SE6       29.71F
ISLAND LAKE    PTCLDY    55  50  82 E6        29.83F
PILOT MOUND      N/A     52  48  87 SE7         N/A
THE PAS        CLOUDY    59  55  88 SE15G22   29.60F
THOMPSON       CLOUDY    59  52  77 SE3       29.73F
WINNIPEG       MOCLDY    59  52  77 SE8       29.79S
LYNN LAKE      LGT RAIN  52  50  93 MISG      29.63F
CHURCHILL      PTCLDY    48  43  81 SE9       29.82S
GILLAM         MOCLDY    48  46  93 SE5       29.81S
$$
                ***SASKATCHEWAN***

CITY           SKY/WX    TMP DP  RH WIND       PRES   REMARKS
ESTEVAN        CLOUDY    61  59  94 NE2       29.68F
KINDERSLEY     PTCLDY    57  43  58 NW6       29.69R
LLOYDMINSTER   MOCLDY    52  45  76 SW7       29.66R
PRINCE ALBERT  PTCLDY    55  55 100 CALM      29.61R
REGINA         PTCLDY    61 N/A N/A S8        29.68R
YORKTON        CLOUDY    61  59  94 S12G18    29.68R
N. BATTLEFORD  CLEAR     50  45  81 NW3       29.66S
LA RONGE       PTCLDY    50  48  93 CALM      29.58R
SASKATOON      PTCLDY    54  48  82 W6        29.66R
SWIFT CURRENT  CLOUDY    61  43  51 N6        29.70R
$$
NOTE: THESE ARE AUTOMATED STATIONS WITH LIMITED QUALITY CONTROL
      "FAIR" INDICATES FEW OR NO CLOUDS BELOW 12,000 FEET WITH NO
      SIGNIFICANT WEATHER AND/OR OBSTRUCTIONS TO VISIBILITY.
      SKY/WX - SKY CONDITION AND SIGNIFICANT WEATHER.
      TMP - AIR TEMPERATURE.    DP   - DEWPOINT TEMPERATURE.
      RH  - RELATIVE HUMIDITY.  PRES - PRESSURE.
      HX  - HEAT INDEX.         WCI  - WIND CHILL INDEX.
$



USA.gov is the U.S. government's official web portal to all federal, state and local government web resources and services.